Date,TemperatureHighF,TemperatureAvgF,TemperatureLowF,DewpointHighF,DewpointAvgF,DewpointLowF,HumidityHigh,HumidityAvg,HumidityLow,PressureMaxIn,PressureMinIn,WindSpeedMaxMPH,WindSpeedAvgMPH,GustSpeedMaxMPH,PrecipitationSumIn
2013-1-1,63.0,59.9,57.0,59.0,56.0,54.0,90,86,82,30.24,30.04,21,18,0,0.00
2013-1-2,61.0,58.2,55.0,57.0,53.6,52.0,100,84,72,30.47,30.28,21,16,0,0.00
2013-1-3,61.0,58.3,52.0,57.0,53.4,48.0,90,83,76,30.56,30.53,24,22,0,0.00
2013-1-6,59.0,56.0,53.0,52.0,50.0,48.0,84,80,76,30.55,30.46,9,9,0,0.00
2013-1-8,54.0,54.0,54.0,46.0,46.0,46.0,76,76,76,30.18,30.18,22,22,0,0.00
2013-1-9,55.0,54.1,52.0,54.0,49.8,43.0,100,85,66,30.34,30.06,23,11,0,0.00
2013-1-10,59.0,55.8,54.0,50.0,44.5,39.0,84,66,58,30.36,30.02,39,30,0,0.00
2013-1-11,61.0,57.3,54.0,55.0,46.4,37.0,84,66,52,30.21,30.05,30,20,0,0.00
2013-1-12,66.0,63.0,59.0,61.0,57.8,50.0,96,83,72,30.06,29.39,43,30,0,0.00
2013-1-13,63.0,60.3,57.0,57.0,52.0,48.0,87,75,63,29.59,29.25,34,19,0,0.00
2013-1-14,65.0,63.7,61.0,61.0,57.7,55.0,88,81,72,30.12,29.63,33,27,0,0.00
2013-1-15,71.0,68.4,64.0,66.0,62.5,55.0,88,81,72,30.22,30.14,25,14,0,0.00
2013-1-16,73.0,71.1,68.0,68.0,63.8,57.0,91,78,64,30.23,30.03,34,21,0,0.00
2013-1-18,71.0,64.2,44.0,61.0,55.0,34.0,82,72,62,30.24,30.07,34,27,0,0.00
2013-1-19,72.0,70.3,68.0,64.0,62.4,61.0,82,76,70,30.19,30.14,29,25,0,0.00
2013-1-20,76.0,73.3,71.0,68.0,64.1,61.0,85,73,62,30.14,30.05,20,9,0,0.00
2013-1-21,72.0,68.0,63.0,63.0,57.4,54.0,82,69,59,30.22,30.09,20,10,0,0.00
2013-1-24,81.0,72.1,67.0,61.0,56.8,54.0,68,59,47,30.34,30.24,22,11,0,0.00
2013-1-25,79.0,73.1,68.0,66.0,60.0,55.0,83,64,50,30.25,30.18,26,14,0,0.00
2013-1-26,72.0,69.1,66.0,61.0,57.5,55.0,77,67,58,30.22,30.17,26,18,0,0.00
2013-1-27,63.0,58.9,56.0,52.0,51.2,50.0,84,75,63,30.44,30.39,33,27,0,0.00
2013-1-28,57.0,54.6,50.0,52.0,47.4,39.0,87,76,61,30.46,30.41,33,16,0,0.00
2013-1-29,72.0,68.8,61.0,57.0,54.7,52.0,87,61,54,30.19,30.15,11,6,0,0.00
2013-1-30,72.0,61.8,58.0,57.0,52.3,46.0,87,72,53,30.22,30.16,24,11,0,0.00
2013-1-31,65.0,62.0,57.0,55.0,51.9,50.0,82,69,63,30.23,30.17,25,20,0,0.00
2013-2-1,63.0,61.0,60.0,52.0,50.1,48.0,72,68,63,30.28,30.21,34,26,0,0.00
2013-2-2,61.0,59.0,57.0,54.0,52.1,50.0,84,77,68,30.39,30.30,29,21,0,0.00
2013-2-3,60.0,57.1,55.0,55.0,53.4,52.0,90,85,79,30.45,30.36,28,21,0,0.00
2013-2-4,59.0,55.6,52.0,54.0,47.2,41.0,90,73,58,30.48,30.35,37,24,0,0.00
2013-2-5,57.0,52.1,48.0,43.0,40.5,37.0,78,65,50,30.20,29.59,44,40,0,0.00
2013-2-6,50.0,49.1,48.0,41.0,37.8,34.0,71,65,57,29.67,29.59,43,34,0,0.00
2013-2-11,39.0,38.4,37.0,30.0,29.4,28.0,69,69,69,29.65,29.62,38,35,0,0.00
2013-2-12,54.0,52.4,45.0,48.0,41.5,30.0,81,67,54,30.04,29.78,18,13,0,0.00
2013-2-13,61.0,58.2,57.0,55.0,54.3,52.0,87,86,77,30.37,30.15,26,21,0,0.00
2013-2-14,63.0,60.7,59.0,59.0,55.2,50.0,90,83,69,30.25,30.00,28,22,0,0.00
2013-2-15,68.0,65.0,62.0,63.0,60.0,55.0,96,83,74,30.03,29.71,47,34,0,0.00
2013-2-16,63.0,61.6,60.0,54.0,47.7,45.0,79,61,53,30.22,29.94,38,26,0,0.00
2013-2-17,72.0,69.0,63.0,68.0,63.7,55.0,93,83,74,30.22,30.09,28,21,0,0.00
2013-2-18,71.0,69.1,65.0,68.0,60.5,48.0,91,74,53,30.19,30.03,41,32,0,0.00
2013-2-19,66.0,62.8,61.0,61.0,48.8,46.0,82,61,55,30.40,30.21,36,20,0,0.00
2013-2-20,69.0,67.2,65.0,63.0,57.1,48.0,82,70,55,30.32,29.97,39,26,0,0.00
2013-2-21,58.0,58.0,58.0,41.0,41.0,41.0,52,52,52,30.12,30.12,10,8,0,0.00
2013-2-22,81.0,73.5,64.0,72.0,66.8,59.0,84,79,69,30.12,30.06,28,18,0,0.00
2013-2-23,77.0,77.0,77.0,70.0,70.0,70.0,78,78,78,29.97,29.97,18,18,0,0.00
2013-2-24,82.0,78.9,75.0,73.0,72.9,72.0,94,82,74,29.99,29.87,17,10,0,0.00
2013-2-25,81.0,72.8,68.0,73.0,68.6,43.0,97,88,40,30.03,29.57,36,18,0,0.00
2013-2-27,63.0,63.0,63.0,52.0,52.0,52.0,67,67,67,30.09,30.09,25,25,0,0.00
2013-2-28,83.0,69.5,63.0,64.0,56.5,43.0,77,63,25,30.11,29.98,28,20,0,0.00
2013-3-1,71.0,67.5,64.0,61.0,55.4,48.0,80,65,55,29.98,29.93,21,11,0,0.00
2013-3-2,65.0,58.1,53.0,52.0,42.9,37.0,65,57,50,29.97,29.92,28,20,0,0.00
2013-3-3,55.0,53.5,52.0,39.0,36.8,34.0,58,53,46,29.99,29.94,23,16,0,0.00
2013-3-4,51.0,45.5,41.0,37.0,31.9,25.0,75,59,48,29.99,29.92,32,22,0,0.00
2013-3-5,59.0,49.9,46.0,39.0,35.0,30.0,66,57,38,30.06,29.96,14,7,0,0.00
2013-3-6,56.0,52.6,48.0,46.0,41.3,36.0,76,65,55,30.12,29.78,31,22,0,0.00
2013-3-7,63.0,59.9,57.0,57.0,50.6,45.0,90,72,62,30.07,29.76,58,42,0,0.00
2013-3-8,61.0,56.4,50.0,54.0,48.8,43.0,90,74,62,29.93,29.78,58,50,0,0.00
2013-3-9,60.0,55.2,54.0,45.0,42.2,37.0,66,60,49,30.11,29.95,39,29,0,0.00
2013-3-10,59.0,53.8,51.0,48.0,40.2,37.0,71,60,51,30.12,30.05,24,18,0,0.00
2013-3-11,62.0,53.9,50.0,48.0,43.8,37.0,79,69,57,30.05,29.85,40,28,0,0.00
2013-3-12,53.0,48.7,46.0,37.0,34.5,34.0,68,57,50,30.18,30.09,41,33,0,0.00
2013-3-13,56.0,50.5,46.0,41.0,37.2,34.0,68,60,49,30.12,29.94,36,24,0,0.00
2013-3-20,52.0,49.8,45.0,45.0,40.2,37.0,90,70,59,29.84,29.52,34,16,0,0.00
2013-3-21,59.0,55.0,52.0,54.0,48.5,41.0,90,78,62,29.59,28.96,25,18,0,0.00
2013-3-22,53.0,51.0,50.0,46.0,42.2,37.0,87,72,61,29.62,28.85,43,30,0,0.00
2013-3-23,60.0,54.4,50.0,59.0,45.7,37.0,96,73,57,29.87,29.46,39,24,0,0.00
2013-3-24,59.0,52.6,41.0,52.0,43.7,32.0,82,72,54,29.60,29.29,37,19,0,0.00
2013-3-25,46.0,43.0,38.0,37.0,32.1,27.0,86,66,48,29.62,29.29,37,18,0,0.00
2013-3-26,48.0,42.2,36.0,41.0,34.8,30.0,100,76,56,29.83,29.06,41,28,0,0.00
2013-3-27,54.0,50.6,47.0,43.0,36.9,34.0,68,59,53,30.16,29.82,29,20,0,0.00
2013-3-28,54.0,52.0,50.0,37.0,33.5,32.0,54,49,45,30.22,30.18,24,17,0,0.00
2013-3-29,75.0,68.1,57.0,54.0,47.5,41.0,82,47,33,30.31,30.24,9,7,0,0.00
2013-3-30,70.0,68.4,68.0,59.0,49.2,-99.9,68,64,59,30.24,30.18,14,11,0,0.00
2013-3-31,81.0,75.4,70.0,70.0,65.8,55.0,78,72,50,30.17,29.94,23,14,0,0.00
2013-4-1,73.0,71.6,70.0,70.0,66.9,63.0,94,85,73,30.06,29.94,18,8,0,0.00
2013-4-3,63.0,63.0,63.0,59.0,58.0,57.0,88,85,82,29.97,29.97,23,22,0,0.00
2013-4-4,76.0,71.3,67.0,70.0,66.8,63.0,94,86,71,29.97,29.88,15,11,0,0.00
2013-4-5,74.0,71.2,69.0,70.0,68.1,64.0,98,90,82,30.02,29.85,37,17,0,0.00
2013-4-6,71.0,67.9,64.0,63.0,57.7,52.0,75,69,63,30.13,29.89,46,28,0,0.00
2013-4-7,72.0,69.3,68.0,63.0,58.2,54.0,73,67,59,30.24,30.15,16,13,0,0.00
2013-4-8,68.0,66.1,64.0,57.0,54.6,54.0,72,65,59,30.21,30.17,17,12,0,0.00
2013-4-9,68.0,64.6,63.0,61.0,57.4,54.0,88,78,68,30.14,30.09,15,12,0,0.00
2013-4-10,70.0,66.0,63.0,66.0,62.1,57.0,100,87,68,30.12,29.94,23,17,0,0.00
2013-4-11,64.0,62.7,61.0,61.0,57.9,55.0,88,85,77,29.96,29.72,22,17,0,0.00
2013-4-12,63.0,57.6,50.0,59.0,49.3,37.0,88,74,54,30.00,29.70,46,31,0,0.00
2013-4-13,63.0,56.4,50.0,48.0,45.9,43.0,76,68,57,29.88,29.74,48,38,0,0.00
2013-4-14,63.0,59.1,57.0,54.0,48.3,45.0,82,68,55,29.88,29.71,34,25,0,0.00
2013-4-15,66.0,60.2,55.0,54.0,52.5,50.0,93,75,59,29.90,29.52,43,27,0,0.00
2013-4-16,61.0,57.5,54.0,54.0,52.1,50.0,90,81,72,29.99,29.62,22,16,0,0.00
2013-4-17,54.0,54.0,54.0,50.0,48.5,46.0,87,83,76,30.02,30.02,16,16,0,0.00
2013-4-22,50.0,49.2,48.0,43.0,43.0,43.0,81,78,76,29.97,29.94,25,24,0,0.00
2013-4-23,57.0,55.4,52.0,54.0,50.8,46.0,87,84,76,30.24,30.06,11,8,0,0.00
2013-4-24,61.0,58.2,54.0,54.0,53.1,50.0,90,82,72,30.28,30.16,15,5,0,0.00
2013-4-25,57.0,53.0,51.0,52.0,41.8,37.0,82,66,57,30.68,30.28,28,16,0,0.00
2013-4-26,60.0,55.2,53.0,48.0,44.5,39.0,76,67,59,30.69,30.63,28,24,0,0.00
2013-4-27,70.0,62.0,59.0,59.0,53.5,48.0,87,74,65,30.65,30.18,25,21,0,0.00
2013-4-28,71.0,65.3,63.0,59.0,57.0,55.0,82,75,62,30.19,29.96,17,10,0,0.00
2013-4-29,66.0,64.1,63.0,59.0,53.6,46.0,82,69,48,30.15,29.88,25,20,0,0.00
2013-4-30,73.0,68.6,63.0,64.0,57.5,50.0,82,68,60,30.17,30.03,23,16,0,0.00
2013-5-1,69.0,66.3,64.0,63.0,61.1,59.0,82,82,80,30.12,30.04,22,18,0,0.00
2013-5-2,72.0,72.0,72.0,63.0,63.0,63.0,73,73,73,30.03,30.03,22,22,0,0.00
2013-5-3,72.0,71.7,71.0,70.0,68.9,66.0,94,91,84,29.77,29.77,34,24,0,0.00
2013-5-4,80.0,78.1,75.0,66.0,64.1,61.0,62,62,61,29.85,29.75,15,12,0,0.00
2013-5-5,75.0,74.2,72.0,64.0,59.2,57.0,73,59,57,29.99,29.89,15,10,0,0.00
2013-5-6,73.0,70.2,66.0,61.0,54.0,52.0,68,56,46,30.06,30.01,15,12,0,0.00
2013-5-9,79.0,77.1,76.0,72.0,70.6,70.0,81,79,78,30.09,30.00,15,12,0,0.00
2013-5-10,84.0,77.2,75.0,75.0,68.6,-99.9,86,80,70,30.09,30.03,15,11,0,0.00
2013-5-11,79.0,76.1,74.0,72.0,69.1,66.0,88,78,65,30.09,29.97,15,-102,0,0.00
2013-5-13,70.0,67.6,59.0,61.0,53.8,39.0,75,62,47,30.00,29.96,28,18,0,0.00
2013-5-14,59.0,59.0,59.0,39.0,39.0,39.0,47,47,47,30.00,30.00,15,15,0,0.00
2013-5-15,74.0,66.8,60.0,73.0,52.2,43.0,97,62,40,30.16,30.15,15,11,0,0.00
2013-5-16,70.0,66.3,64.0,50.0,41.2,-99.9,55,52,46,30.11,30.07,11,10,0,0.00
2013-5-17,70.0,66.1,63.0,64.0,57.1,50.0,82,72,57,30.19,30.12,22,16,0,0.00
2013-5-18,68.0,65.8,64.0,61.0,60.8,59.0,88,83,72,30.25,30.21,23,20,0,0.00
2013-5-19,72.0,64.4,62.0,61.0,58.8,57.0,90,82,68,30.42,30.33,23,18,0,0.00
2013-5-20,65.0,62.9,61.0,59.0,57.4,52.0,88,83,75,30.46,30.40,15,11,0,0.00
2013-5-21,60.0,57.1,55.0,52.0,49.6,46.0,84,76,60,30.40,30.28,22,15,0,0.00
2013-5-22,56.0,56.0,56.0,50.0,50.0,50.0,79,79,79,30.21,30.21,10,10,0,0.00
2013-5-28,55.0,53.9,52.0,46.0,45.2,45.0,81,72,67,30.03,29.71,34,23,0,0.00
2013-5-29,60.0,57.1,55.0,55.0,54.2,46.0,97,89,81,30.40,29.91,28,-61,0,0.00
2013-5-30,66.0,63.3,61.0,59.0,57.5,57.0,89,82,73,30.52,30.40,10,10,0,0.00
2013-5-31,71.0,66.3,63.0,64.0,61.0,59.0,88,83,74,30.51,30.12,22,-122,0,0.00
2013-6-1,72.0,69.8,67.0,66.0,62.8,57.0,88,79,71,30.22,29.94,22,16,0,0.00
2013-6-2,76.0,71.9,70.0,70.0,67.3,64.0,94,85,80,30.19,29.99,22,-47,0,0.00
2013-6-3,77.0,73.1,70.0,70.0,67.5,64.0,94,83,78,30.27,29.98,22,14,0,0.00
2013-6-4,81.0,75.9,73.0,73.0,71.6,66.0,94,86,67,30.09,29.88,22,16,0,0.00
2013-6-5,77.0,76.6,76.0,73.0,72.6,72.0,93,88,83,30.06,29.89,15,12,0,0.00
2013-6-7,85.0,77.1,74.0,77.0,72.3,70.0,97,84,72,29.97,29.59,43,23,0,0.00
2013-6-8,77.0,76.8,76.0,73.0,71.2,70.0,88,82,78,30.06,30.00,6,6,0,0.00
2013-6-9,91.0,86.3,77.0,82.0,77.5,73.0,94,76,63,30.05,29.99,15,13,0,0.00
2013-6-10,86.0,80.3,77.0,77.0,75.6,73.0,94,86,82,30.04,29.97,15,11,0,0.00
2013-6-12,86.0,86.0,86.0,77.0,77.0,77.0,74,74,74,29.99,29.99,13,13,0,0.00
2013-6-13,88.0,82.7,80.0,79.0,75.4,73.0,86,78,66,30.06,29.94,15,10,0,0.00
2013-6-14,86.0,81.9,81.0,75.0,74.5,73.0,83,79,70,30.06,29.90,15,11,0,0.00
2013-6-15,80.0,77.6,75.0,75.0,67.7,64.0,86,73,65,29.96,29.94,15,10,0,0.00
2013-6-17,75.0,72.9,71.0,70.0,67.7,63.0,96,84,66,30.12,30.08,20,16,0,0.00
2013-6-18,74.0,73.3,72.0,70.0,69.4,68.0,91,86,83,29.93,29.84,22,17,0,0.00
2013-6-19,77.0,74.2,72.0,72.0,70.9,70.0,92,87,78,29.91,29.83,28,24,0,0.00
2013-6-20,77.0,74.8,72.0,73.0,70.6,66.0,100,86,83,30.18,29.97,28,24,0,0.00
2013-6-22,65.0,65.0,65.0,64.0,64.0,64.0,96,96,96,30.33,30.33,17,17,0,0.00
2013-7-6,75.0,75.0,75.0,72.0,71.0,70.0,88,85,82,29.95,29.94,10,8,0,0.00
2013-7-7,83.0,79.0,75.0,75.0,73.0,70.0,88,81,76,29.99,29.93,21,12,0,0.00
2013-7-8,84.0,81.2,79.0,75.0,74.6,72.0,88,80,67,30.22,29.93,22,17,0,0.00
2013-7-9,83.0,79.8,77.0,73.0,71.0,68.0,79,73,65,30.25,30.16,15,10,0,0.00
2013-7-10,81.0,80.3,79.0,73.0,72.7,72.0,83,78,76,30.28,30.14,10,10,0,0.00
2013-7-12,84.0,82.1,81.0,75.0,74.5,73.0,83,78,74,29.97,29.82,22,12,0,0.00
2013-7-14,88.0,82.9,77.0,75.0,73.8,72.0,83,75,64,30.02,29.97,22,11,0,0.00
2013-7-15,90.0,80.9,77.0,77.0,74.1,73.0,94,81,66,30.00,29.98,16,13,0,0.00
2013-7-17,82.0,82.0,82.0,72.0,72.0,72.0,69,69,69,30.12,30.08,21,21,0,0.00
2013-7-18,86.0,82.7,81.0,75.0,72.7,70.0,78,72,66,30.12,29.99,21,15,0,0.00
2013-7-19,84.0,73.8,77.0,75.0,57.4,-99.9,83,70,65,30.12,30.03,23,17,0,0.00
2013-7-20,81.0,80.8,80.0,75.0,74.7,73.0,86,83,78,30.14,30.09,12,10,0,0.00
2013-7-21,84.0,82.4,81.0,77.0,74.3,70.0,88,76,69,30.09,29.97,18,16,0,0.00
2013-7-22,87.0,79.7,77.0,77.0,73.0,70.0,83,81,73,30.02,29.94,15,10,0,0.00
2013-7-23,83.0,80.4,77.0,77.0,75.0,72.0,88,84,76,30.06,29.74,23,19,0,0.00
2013-7-24,82.0,80.3,77.0,77.0,74.3,72.0,94,82,78,30.02,29.74,25,19,0,0.00
2013-7-25,82.0,80.8,79.0,77.0,74.0,72.0,94,81,69,30.42,30.05,32,20,0,0.00
2013-7-26,86.0,80.2,77.0,75.0,74.0,72.0,94,81,70,30.50,30.45,23,10,0,0.00
2013-7-27,73.0,71.5,68.0,68.0,65.2,61.0,91,80,73,30.33,29.97,23,18,0,0.00
2013-8-10,79.0,74.1,71.0,73.0,63.3,59.0,86,69,57,30.24,30.12,28,13,0,0.00
2013-8-11,82.0,78.2,75.0,75.0,71.6,68.0,86,79,78,30.18,29.97,25,17,0,0.00
2013-8-12,82.0,79.3,77.0,77.0,71.2,68.0,94,76,65,30.34,29.97,25,11,0,0.00
2013-8-13,82.0,78.5,79.0,79.0,69.9,-99.9,94,82,63,30.00,29.88,25,15,0,0.00
2013-8-14,85.0,81.6,81.0,79.0,75.5,73.0,83,82,78,29.91,29.83,33,26,0,0.00
2013-8-15,76.0,64.7,75.0,73.0,48.3,-99.9,94,79,91,30.02,30.01,23,18,0,0.00
2013-8-16,86.0,75.5,75.0,77.0,64.4,-99.9,94,83,74,30.03,29.99,17,13,0,0.00
2013-8-17,84.0,69.3,82.0,75.0,45.9,-99.9,78,63,74,30.05,30.03,16,14,0,0.00
2013-8-18,91.0,84.3,79.0,81.0,75.0,70.0,83,74,62,30.03,29.97,22,13,0,0.00
2013-8-19,89.0,82.8,79.0,75.0,73.6,72.0,83,75,64,30.00,29.96,10,6,0,0.00
2013-8-21,82.0,82.0,82.0,75.0,75.0,75.0,78,78,78,29.99,29.99,11,11,0,0.00
2013-8-22,86.0,83.2,81.0,77.0,75.1,73.0,79,76,70,30.00,29.88,15,11,0,0.00
2013-8-23,87.0,84.1,82.0,77.0,75.0,73.0,78,74,68,30.00,29.87,25,18,0,0.00
2013-8-24,82.0,80.7,75.0,75.0,73.1,72.0,94,78,69,30.12,30.00,26,10,0,0.00
2013-8-25,81.0,78.4,77.0,72.0,70.8,70.0,78,77,67,30.18,30.16,32,29,0,0.00
2013-8-26,80.0,77.3,75.0,68.0,63.5,59.0,78,62,51,30.22,30.18,21,13,0,0.00
2013-8-27,81.0,81.0,81.0,70.0,70.0,70.0,69,69,69,29.96,29.96,17,17,0,0.00
2013-8-28,79.0,74.0,71.0,72.0,71.0,70.0,96,90,78,29.88,29.83,32,26,0,0.00
2013-8-29,77.0,73.9,68.0,73.0,69.8,66.0,94,86,78,30.09,29.70,30,23,0,0.00
2013-8-30,77.0,76.0,75.0,73.0,70.2,66.0,94,81,69,30.18,30.09,26,24,0,0.00
2013-8-31,75.0,71.0,68.0,70.0,67.6,63.0,94,89,77,30.18,30.08,23,18,0,0.00
2013-9-14,82.0,81.1,79.0,75.0,73.5,72.0,83,78,71,30.31,30.27,15,12,0,0.00
2013-9-15,82.0,78.3,77.0,75.0,69.7,-99.9,86,79,74,30.27,30.08,18,15,0,0.00
2013-9-16,82.0,79.0,76.0,75.0,69.9,66.0,83,74,58,30.16,30.06,18,10,0,0.00
2013-9-17,79.0,77.9,77.0,73.0,67.7,63.0,83,71,59,30.12,29.99,23,17,0,0.00
2013-9-18,77.0,76.5,76.0,70.0,66.5,64.0,78,71,65,30.12,30.08,28,21,0,0.00
2013-9-19,81.0,79.9,77.0,75.0,73.6,70.0,83,82,78,30.05,30.05,11,9,0,0.00
2013-9-20,87.0,79.5,77.0,72.0,69.8,68.0,78,71,60,30.03,29.96,20,12,0,0.00
2013-9-21,86.0,72.5,81.0,77.0,52.0,-99.9,78,64,69,29.83,29.77,6,2,0,0.00
2013-9-22,91.0,85.6,81.0,81.0,78.2,75.0,86,78,67,30.08,29.72,15,9,0,0.00
2013-9-23,88.0,83.2,81.0,81.0,78.3,75.0,94,84,74,29.74,29.69,18,14,0,0.00
2013-9-25,84.0,84.0,84.0,75.0,75.0,75.0,74,74,74,29.84,29.84,8,8,0,0.00
2013-9-27,86.0,85.0,82.0,77.0,75.7,72.0,83,73,65,29.85,29.77,16,14,0,0.00
2013-9-29,77.0,72.9,70.0,68.0,66.3,63.0,94,81,61,30.02,29.96,18,12,0,0.00
2013-9-30,72.0,70.4,70.0,68.0,66.1,63.0,94,87,73,29.97,29.91,21,18,0,0.00
2013-10-1,75.0,75.0,75.0,64.0,64.0,64.0,69,69,69,29.97,29.97,10,10,0,0.00
2013-10-2,81.0,74.0,72.0,64.0,62.9,61.0,73,68,57,29.97,29.90,15,10,0,0.00
2013-10-3,82.0,74.9,72.0,70.0,64.8,63.0,78,71,58,29.91,29.81,21,16,0,0.00
2013-10-4,81.0,73.2,68.0,64.0,62.0,59.0,80,67,54,29.83,29.75,22,20,0,0.00
2013-10-20,77.0,77.0,77.0,70.0,70.0,70.0,78,78,78,29.99,29.99,15,15,0,0.00
2013-10-21,79.0,76.7,74.0,75.0,71.6,68.0,94,83,78,30.02,29.93,28,19,0,0.00
2013-10-22,79.0,77.0,72.0,75.0,72.2,66.0,94,85,78,30.03,29.85,23,12,0,0.00
2013-10-23,75.0,71.5,70.0,72.0,63.4,59.0,88,75,68,30.05,29.68,24,14,0,0.00
2013-10-25,70.0,66.9,64.0,61.0,58.9,55.0,82,75,68,30.19,30.12,17,10,0,0.00
2013-10-27,81.0,77.7,73.0,70.0,66.3,64.0,83,68,57,30.05,29.99,22,15,0,0.00
2013-10-28,83.0,75.7,73.0,70.0,67.4,66.0,85,75,63,30.11,30.00,11,9,0,0.00
2013-10-30,81.0,81.0,81.0,72.0,72.0,72.0,74,74,74,30.02,30.02,22,22,0,0.00
2013-10-31,84.0,81.2,79.0,77.0,73.5,70.0,83,77,69,30.03,29.96,24,20,0,0.00
2013-11-1,84.0,81.6,79.0,77.0,73.1,72.0,79,75,69,30.00,29.94,22,15,0,0.00
2013-11-3,66.0,66.0,66.0,54.0,51.6,46.0,63,58,48,30.19,30.14,29,25,0,0.00
2013-11-4,63.0,63.0,63.0,48.0,47.3,46.0,59,58,55,30.28,30.25,34,31,0,0.00
2013-11-5,68.0,64.0,64.0,55.0,53.8,48.0,72,69,59,30.47,30.42,24,20,0,0.00
2013-11-6,78.0,71.2,64.0,63.0,57.2,48.0,73,61,50,30.45,30.33,23,20,0,0.00
2013-11-7,72.0,70.3,68.0,63.0,56.2,52.0,75,61,52,30.33,30.24,23,21,0,0.00
2013-11-8,70.0,68.6,67.0,61.0,55.7,52.0,73,63,57,30.24,30.02,29,25,0,0.00
2013-11-25,68.0,65.1,63.0,66.0,58.8,54.0,93,80,72,30.16,29.94,34,34,0,0.00
2013-11-26,68.0,64.4,61.0,57.0,51.0,39.0,68,62,44,30.47,30.30,22,14,0,0.00
2013-11-27,77.0,73.2,72.0,75.0,67.1,61.0,94,81,68,30.00,29.56,46,41,0,0.00
2013-11-28,50.0,50.0,50.0,41.0,41.0,41.0,71,71,71,30.18,30.18,30,30,0,0.00
2013-11-30,76.0,76.0,76.0,70.0,70.0,70.0,80,80,80,30.12,30.12,24,24,0,0.00
2013-12-1,73.0,72.7,72.0,66.0,64.7,63.0,78,76,73,30.14,30.07,18,16,0,0.00
2013-12-2,70.0,70.0,70.0,61.0,59.6,59.0,73,69,68,29.99,29.98,9,8,0,0.00
2013-12-4,75.0,73.9,72.0,73.0,71.9,70.0,94,93,91,29.87,29.81,30,28,0,0.00
2013-12-5,81.0,77.7,76.0,75.0,75.0,75.0,97,92,83,30.09,29.96,28,21,0,0.00
2013-12-6,84.0,78.4,75.0,75.0,71.1,68.0,94,77,65,30.24,30.06,37,22,0,0.00
2013-12-7,75.0,72.0,65.0,70.0,66.9,63.0,90,83,78,30.24,30.17,11,11,0,0.00
2013-12-8,63.0,62.0,61.0,63.0,62.0,61.0,100,100,100,30.27,30.27,26,26,0,0.00
2013-12-9,81.0,65.8,54.0,70.0,61.0,48.0,94,85,65,30.24,30.10,15,9,0,0.00
2013-12-10,48.0,46.2,45.0,39.0,37.8,37.0,75,74,72,30.27,30.25,16,12,0,0.00
2013-12-11,59.0,49.0,45.0,48.0,39.5,32.0,87,70,58,30.39,30.21,25,17,0,0.00